Flag for Greece Weather past 2 weeks in Kallithea, Greece

Now
82 °F

Passing clouds.


Feels Like: 81 °F
Forecast: 61 / 80 °F
Wind: 16 mph from Southwest

Location: Elefsis Airport

Current Time: May 25, 2015 at 5:33:07 PM

Latest Report: May 25, 2015 at 4:50 PM


Visibility: N/A

Pressure: 29.77 "Hg

Humidity: 26%

Dew point: 45 °F

Location of KallitheaLocation

Historic Weather in Kallithea — Graph

°F

Kallithea temperature yesterday

Maximum temperature yesterday: 84 °F (at 3:50 PM)
Minimum temperature yesterday: 64 °F (at 5:20 AM)
Average temperature yesterday: 74 °F

Past Weeks' High & Low Weather Summary

 TemperatureHumidityPressure
High86 °F (May 18, 11:20 AM)83% (May 16, 2:50 AM)30.12 "Hg (May 16, 2:50 AM)
Low54 °F (May 14, 4:50 AM)15% (May 24, 2:20 PM)29.71 "Hg (May 19, 5:50 PM)
Average70 °F48%29.92 "Hg
* Reported May 10 3:20 PM — May 25 3:50 PM, Kallithea, Weather by CustomWeather, © 2015

Note: Actual official high and low records may vary slightly from our data, if they occured in-between our weather recording intervals... More about our weather records

Advertising

Kallithea weather history for previous 24 hours

 ConditionsComfort  
Time TempWeatherWind HumidityBarometerVisibility
3:50 PM
Mon, May 25
82 °FPassing clouds.12 mph25%29.80 "HgN/A
3:20 PM82 °FPassing clouds.12 mph23%29.80 "HgN/A
2:50 PM82 °FPassing clouds.14 mph21%29.80 "HgN/A
2:20 PM82 °FPassing clouds.16 mph21%29.80 "HgN/A
1:50 PM82 °FPassing clouds.14 mph21%29.80 "HgN/A
1:20 PM82 °FSunny.14 mph21%29.80 "Hg10 mi
12:50 PM81 °FSunny.7 mph21%29.80 "Hg10 mi
12:20 PM81 °FSunny.5 mph23%29.80 "Hg10 mi
11:50 AM81 °FSunny.7 mph23%29.83 "Hg10 mi
11:20 AM79 °FSunny.9 mph24%29.83 "Hg10 mi
10:50 AM77 °FSunny.12 mph28%29.83 "Hg10 mi
10:20 AM77 °FSunny.9 mph28%29.83 "Hg10 mi
9:50 AM75 °FSunny.14 mph27%29.83 "Hg10 mi
9:20 AM73 °FSunny.16 mph31%29.83 "Hg10 mi
8:50 AM72 °FSunny.14 mph36%29.83 "Hg10 mi
8:20 AM72 °FSunny.12 mph38%29.83 "Hg10 mi
7:50 AM68 °FSunny.9 mph46%29.83 "Hg10 mi
7:20 AM66 °FSunny.9 mph52%29.83 "Hg10 mi
6:50 AM64 °FClear.9 mph52%29.83 "Hg10 mi
6:20 AM59 °FClear.10 mph63%29.80 "Hg10 mi
5:50 AM61 °FClear.8 mph59%29.80 "Hg10 mi
5:20 AM63 °FClear.3 mph56%29.80 "Hg10 mi
4:50 AM64 °FClear.7 mph56%29.77 "Hg10 mi
4:20 AM64 °FClear.7 mph56%29.77 "Hg10 mi
3:50 AM66 °FClear.10 mph52%29.77 "Hg10 mi
3:20 AM66 °FClear.10 mph49%29.77 "Hg10 mi
2:50 AM66 °FClear.6 mph49%29.77 "Hg10 mi
2:20 AM66 °FClear.7 mph46%29.80 "Hg10 mi
1:50 AM66 °FClear.12 mph52%29.80 "Hg10 mi
1:20 AM66 °FClear.8 mph46%29.80 "Hg10 mi
12:50 AM68 °FClear.9 mph46%29.80 "Hg10 mi
12:20 AM68 °FClear.9 mph46%29.80 "Hg10 mi
11:50 PM
Sun, May 24
68 °FClear.3 mph46%29.80 "Hg10 mi
11:20 PM70 °FClear.8 mph40%29.80 "Hg10 mi
10:50 PM70 °FClear.7 mph40%29.77 "Hg10 mi
10:20 PM70 °FClear.7 mph40%29.77 "Hg10 mi
9:50 PM70 °FClear.6 mph40%29.77 "Hg10 mi
9:20 PM72 °FSunny.9 mph38%29.74 "Hg10 mi
8:50 PM73 °FSunny.10 mph33%29.74 "Hg10 mi
8:20 PM77 °FSunny.9 mph26%29.74 "Hg10 mi
7:50 PM79 °FSunny.7 mph24%29.74 "Hg10 mi
7:20 PM79 °FSunny.9 mph24%29.74 "Hg10 mi
6:50 PM81 °FSunny.12 mph23%29.74 "Hg10 mi
6:20 PM82 °FSunny.10 mph21%29.74 "Hg10 mi
5:50 PM84 °FSunny.9 mph19%29.74 "Hg10 mi
5:20 PM82 °FSunny.9 mph21%29.74 "Hg10 mi
Weather by CustomWeather, © 2015

See weather overviewHow to use our weather pages